Probability
0 0 0 0 0 0 0 0 0 0 0 0 0 0 0 0 1 1 1 1 2 4 4 3 1 0 1 2 3 2 1 0 1 2 2 1 2 2 2 1 0 0 0
0 0 0 0 0 0 0 0 0 0 0 0 0 0 0 0 0 0 0 1 2 3 4 3 1 0 0 1 3 2 1 0 1 2 2 1 1 1 1 0 0 0 0
0 0 0 0 0 0 0 0 0 0 0 0 0 0 0 0 0 0 0 0 1 3 3 2 1 0 0 1 2 2 1 0 0 1 1 1 0 0 0 0 0 0 0
0 0 0 0 0 0 0 0 0 0 0 0 0 0 0 0 0 0 0 0 1 2 3 2 1 0 0 1 2 2 1 0 0 0 0 0 0 0 0 0 0 0 0
0 0 0 0 0 0 0 0 0 0 0 0 0 0 0 0 0 0 0 0 1 2 3 2 1 0 0 0 1 1 0 0 0 0 0 0 0 0 0 0 0 0 0
0 0 0 0 0 0 0 0 0 0 0 0 0 0 0 0 0 0 0 0 0 1 1 2 1 0 0 0 0 0 0 0 0 0 0 0 1 0 0 0 0 0 0
0 0 0 0 0 0 0 0 0 0 0 0 0 0 0 0 0 0 0 0 0 0 1 2 1 0 0 0 0 0 0 0 0 0 0 0 0 0 0 0 0 0 0
0 0 0 0 0 0 0 0 0 0 0 0 0 0 0 0 0 0 0 0 0 0 0 1 1 0 0 0 0 1 0 0 0 0 0 0 0 0 0 0 0 0 0
0 0 0 0 0 0 0 0 0 0 0 0 0 0 0 0 0 0 0 0 0 0 0 0 0 0 0 0 0 0 0 0 0 0 0 0 0 0 0 0 0 0 0
0 0 0 0 0 0 0 0 0 0 0 0 0 0 0 0 0 0 0 0 0 0 0 0 0 0 0 0 0 0 0 0 0 0 0 0 0 0 0 0 0 0 0
0 0 0 0 0 0 0 0 0 0 0 0 0 0 0 0 0 0 0 0 0 0 0 0 0 0 0 0 0 0 0 0 0 0 0 0 0 0 0 0 0 0 0
0 0 0 0 0 0 0 0 0 0 0 0 0 0 0 0 0 0 0 0 0 0 0 0 0 0 0 0 0 0 0 0 0 0 0 0 0 0 0 0 0 0 0
0 0 0 0 0 0 0 0 0 0 0 0 0 0 0 0 0 0 0 0 0 0 0 0 0 0 0 0 0 0 0 0 0 0 0 0 0 0 0 0 0 0 0
0 0 0 0 0 0 0 0 0 0 0 0 0 0 0 0 0 0 0 0 0 0 0 0 0 0 0 0 0 0 0 0 0 0 0 0 0 0 0 0 0 0 0
0 0 0 0 0 0 0 0 1 1 0 0 0 0 0 0 0 0 0 0 0 0 0 0 0 0 0 0 0 0 0 0 0 0 0 0 0 0 0 0 0 0 0
0 0 0 0 0 0 0 0 1 1 0 0 0 0 0 0 0 0 0 0 0 0 0 0 0 0 0 0 0 0 0 0 0 0 0 0 0 0 0 0 0 0 0
0 0 0 0 0 0 0 0 0 0 0 0 0 0 0 0 0 0 0 0 0 0 0 0 0 0 0 0 0 0 0 0 0 0 0 0 0 0 0 0 0 0 0
0 0 0 0 0 0 0 0 0 0 0 0 0 0 0 0 0 0 0 0 0 0 0 0 0 0 0 0 0 0 0 0 0 0 0 0 0 0 0 0 0 0 0
0 0 0 0 0 0 0 0 0 0 0 0 0 0 0 0 0 0 0 0 0 0 0 0 0 0 0 0 0 0 0 0 0 0 0 0 0 0 0 0 0 0 0
0 0 0 0 0 0 0 0 0 0 0 0 0 0 0 0 0 0 0 0 0 0 0 0 0 0 0 0 0 0 0 0 0 0 0 0 0 0 0 0 0 0 0
0 0 0 0 0 0 0 0 0 0 0 0 0 0 0 0 0 0 0 0 0 0 0 0 0 0 0 0 0 0 0 0 0 0 0 0 0 0 0 0 0 0 0
0 0 0 0 0 0 0 0 0 0 0 0 0 0 0 0 0 0 0 0 0 0 0 0 0 0 0 0 0 0 0 0 0 0 0 0 0 0 0 0 0 0 0
0 0 0 0 0 0 0 0 0 0 0 0 0 0 0 0 0 0 0 0 0 0 0 0 0 0 0 0 0 0 0 0 0 0 0 0 0 0 0 0 0 0 0
0 0 0 0 0 0 0 0 0 0 0 0 0 0 0 0 0 0 0 0 0 0 0 0 0 0 0 0 0 0 0 0 0 0 0 0 0 0 0 0 0 0 0
0 0 0 0 0 0 0 0 0 0 0 0 0 0 0 0 0 0 0 0 0 0 0 0 0 0 0 0 0 0 0 0 0 0 0 0 0 0 0 0 0 0 0
0 0 0 0 0 0 0 0 0 0 0 0 0 0 0 0 0 0 0 0 0 0 0 0 0 0 0 0 0 0 0 0 0 0 0 0 0 0 0 0 0 0 0
Wind_Speed
2 1 1 1 2 3 3 3 4 4 3 2 3 3 3 3 3 3 4 4 4 4 3 3 3 3 3 4 4 3 4 3 2 2 2 2 3 4 4 5 5 6 7
1 1 1 2 3 3 3 4 4 4 3 3 3 3 3 3 4 4 4 5 5 5 5 4 4 4 3 4 4 4 3 3 3 3 2 1 2 3 4 4 5 6 6
2 2 2 3 2 3 3 4 4 4 4 4 3 3 3 3 3 4 4 5 6 5 6 6 5 5 5 4 5 5 5 4 4 4 4 3 3 1 2 4 5 5 5
3 3 3 3 3 3 3 4 5 5 5 4 4 5 5 5 5 5 4 5 6 7 7 7 6 6 5 6 6 6 5 5 5 4 4 3 3 3 2 3 4 5 6
3 3 3 3 3 3 3 4 5 5 5 4 4 5 5 5 5 5 6 6 6 7 7 7 6 7 6 7 7 6 6 5 6 5 4 4 3 3 4 4 4 3 4
2 3 3 3 4 3 4 4 5 5 5 5 5 6 7 7 7 7 7 6 5 6 7 8 7 7 7 7 8 8 8 7 7 6 5 5 5 5 4 5 6 5 4
2 3 4 4 4 5 5 4 4 5 5 5 5 6 7 7 8 8 7 7 6 6 7 8 7 7 7 8 8 8 8 8 8 8 6 6 6 5 4 4 4 3 2
3 4 4 5 5 5 5 5 5 6 6 6 6 6 6 5 5 7 7 7 7 7 7 8 8 8 9 9 8 8 9 8 8 9 8 6 6 6 5 5 5 4 3
3 3 4 4 4 5 5 5 6 6 6 6 6 6 6 6 7 7 7 7 7 7 8 8 8 8 9 9 9 8 9 8 8 8 9 7 6 6 6 5 6 6 5
3 4 4 4 4 5 5 5 6 7 7 6 6 6 6 7 7 7 8 8 8 8 8 8 9 9 10 10 10 9 9 10 9 7 9 8 6 6 6 6 5 5 5
4 4 4 4 5 5 5 6 6 6 6 6 6 6 7 7 7 7 8 8 8 8 8 8 8 8 10 10 10 10 10 11 10 9 10 10 8 6 6 6 6 5 5
4 4 4 4 5 6 6 6 6 6 7 7 7 7 7 7 7 8 9 8 8 7 7 8 8 9 10 9 10 11 11 11 11 11 10 11 8 9 8 7 7 6 6
4 4 4 5 6 6 7 6 6 7 7 7 7 7 7 7 8 8 8 7 7 7 7 8 9 9 9 9 10 11 11 11 11 11 11 11 10 9 8 8 7 6 6
4 5 5 6 6 7 7 7 7 7 7 7 7 7 8 8 8 8 7 7 6 7 7 8 8 9 9 9 9 10 10 10 10 11 11 11 11 10 9 9 9 7 7
6 6 6 6 7 7 7 7 7 7 7 7 7 7 8 7 7 7 7 6 6 7 6 7 7 7 7 7 7 8 9 10 10 10 10 10 11 12 10 9 9 8 7
6 7 7 7 8 8 8 8 7 7 7 7 8 7 7 7 7 7 7 6 6 6 5 6 6 6 6 9 11 9 7 8 9 9 8 9 10 11 12 13 14 13 11
7 7 7 7 7 8 7 7 7 7 7 7 8 7 7 7 7 7 7 6 6 5 6 5 6 5 6 10 11 11 7 7 8 8 8 7 8 9 7 8 9 10 12
6 6 6 7 7 7 7 7 6 6 6 7 7 7 7 7 7 6 7 6 5 5 5 5 5 4 6 10 11 10 7 6 7 8 8 8 8 8 7 6 6 6 6
5 6 6 7 7 7 7 6 6 6 6 7 7 8 7 8 7 7 7 5 5 5 5 6 5 5 7 10 10 9 5 5 6 7 7 8 8 10 10 7 7 6 4
5 5 6 6 6 7 6 6 7 6 7 7 7 8 7 7 7 7 7 5 5 5 5 5 5 5 5 8 8 8 3 4 4 4 5 8 9 10 10 8 8 8 7
6 6 6 6 6 6 6 6 7 7 7 7 7 8 7 7 7 6 5 5 5 4 4 5 5 5 5 5 7 7 4 4 4 3 4 5 8 10 9 8 7 10 9
6 6 6 6 6 5 5 6 7 7 7 7 7 7 7 7 7 6 5 4 4 4 4 4 5 4 4 4 5 7 6 6 3 3 3 4 7 7 7 7 9 12 10
6 6 6 6 6 5 5 7 7 7 7 7 7 7 8 7 6 6 6 5 4 3 4 3 4 4 3 2 5 5 6 7 4 2 3 4 5 5 6 9 11 9 7
6 6 6 6 6 6 6 6 7 7 7 7 7 7 7 7 6 5 4 4 4 4 4 4 4 4 3 2 1 1 2 2 2 1 1 2 3 4 6 8 7 5 6
6 5 6 6 7 6 6 6 7 7 7 7 7 6 6 6 5 5 5 5 4 5 5 4 3 4 4 4 6 5 3 2 2 2 1 2 3 4 4 4 4 5 5
5 6 6 6 6 6 6 6 6 6 7 7 6 5 5 5 5 5 6 7 7 9 9 8 7 5 6 7 7 6 6 5 3 1 1 2 3 4 5 5 5 4 5
Wind_Direction
211 199 229 247 259 264 276 286 291 281 268 273 267 267 264 262 266 257 259 262 254 246 243 253 242 238 237 239 239 236 229 226 212 202 230 253 228 219 214 209 201 199 198
239 252 269 269 260 264 280 286 287 284 269 262 262 253 261 260 257 254 256 254 253 246 252 240 236 234 238 241 237 237 234 227 201 189 183 232 257 237 223 210 207 204 199
223 250 267 275 282 276 271 285 286 284 269 267 274 274 275 278 272 264 260 255 254 246 245 242 236 231 228 234 234 225 233 226 216 200 190 184 209 237 241 223 214 202 202
216 246 268 280 284 273 269 274 282 278 271 270 270 269 271 270 268 263 258 259 255 246 240 238 235 229 226 227 232 231 219 220 218 219 227 223 190 189 228 237 222 209 208
218 245 258 266 275 273 264 266 270 272 270 266 263 265 270 270 271 270 267 268 260 246 239 234 233 229 225 223 225 228 220 218 218 218 217 226 217 205 198 222 222 228 213
238 246 258 267 281 283 276 265 265 271 273 269 263 259 265 271 274 273 268 264 258 248 238 233 231 229 225 223 224 223 223 222 221 221 219 210 204 202 202 208 209 223 230
274 271 276 278 286 287 276 267 269 279 278 275 271 262 263 265 266 267 265 266 264 255 242 238 234 232 227 225 224 223 224 222 220 216 220 223 222 212 213 202 210 226 251
265 271 267 273 278 282 283 280 280 284 284 279 274 267 266 264 264 265 265 263 260 254 248 239 239 239 231 230 226 226 225 223 220 222 219 223 226 213 203 201 196 211 248
277 287 284 282 285 285 279 275 282 285 285 281 279 278 273 272 270 269 269 268 266 261 253 246 243 241 236 231 227 228 226 224 221 220 218 221 227 217 205 202 195 198 220
291 300 292 289 291 286 284 286 282 282 280 279 279 283 280 277 271 272 271 272 270 264 259 254 250 246 239 232 229 228 224 225 223 219 219 221 224 215 201 199 209 203 203
295 293 292 294 294 290 289 291 290 291 289 284 281 282 282 282 279 275 271 268 267 261 258 255 253 251 245 234 228 229 224 224 223 222 221 221 216 212 202 197 205 205 198
296 296 295 300 300 298 298 294 294 294 290 288 287 283 281 282 280 279 275 270 267 261 257 255 255 254 251 237 228 229 227 223 221 221 220 220 216 213 204 199 205 206 201
308 314 315 310 304 303 301 297 295 292 290 289 288 285 283 281 278 280 277 272 270 266 262 259 256 255 250 243 232 228 227 224 221 219 218 217 211 215 209 202 204 202 202
315 316 311 305 303 304 304 302 298 295 295 293 287 284 283 282 281 284 278 272 270 267 264 263 260 255 252 251 241 229 224 224 224 221 217 214 212 212 209 205 203 197 192
314 313 310 307 307 307 304 300 297 297 296 293 289 286 284 283 284 288 287 280 275 274 271 271 265 255 250 250 245 231 224 221 224 221 216 217 218 217 216 208 198 191 191
309 313 313 310 309 307 303 301 299 300 300 296 293 293 294 291 289 291 294 282 274 274 277 271 266 258 256 260 258 254 231 225 224 220 217 217 215 216 224 220 210 202 196
309 312 312 309 308 306 303 301 302 305 305 301 301 298 296 295 290 290 292 281 275 276 274 272 269 264 262 262 262 265 253 234 226 217 216 218 216 214 203 206 207 208 206
313 315 315 311 308 304 306 305 307 308 304 303 305 304 303 300 296 293 289 278 276 273 272 273 273 269 269 271 266 267 260 244 227 222 214 210 207 205 195 190 197 201 203
313 309 307 305 307 307 307 310 309 308 306 305 305 306 304 304 301 299 294 284 278 275 271 269 271 268 266 272 273 272 257 247 235 223 213 206 202 197 194 189 189 188 185
317 315 314 313 311 308 312 314 308 309 304 304 304 304 304 304 303 301 298 289 278 279 278 273 268 271 268 269 276 281 258 250 238 219 209 209 206 195 192 190 184 181 178
317 318 317 312 305 308 315 310 306 308 307 306 308 309 309 306 303 300 294 287 289 285 284 286 287 284 277 275 279 287 274 254 238 227 217 205 198 197 197 199 189 179 170
316 317 317 311 312 314 316 311 306 307 311 311 307 308 309 307 304 301 303 299 301 295 287 293 300 299 290 282 281 292 290 290 264 246 233 202 193 195 191 185 170 164 161
317 318 314 308 310 313 313 309 309 312 312 314 313 309 308 308 309 309 310 309 303 297 296 295 294 297 294 279 291 301 309 305 295 265 236 207 191 188 177 166 163 163 160
313 314 313 309 310 313 311 308 312 317 318 318 317 313 312 314 317 317 311 307 305 300 295 296 295 298 302 301 301 316 329 337 335 327 169 181 176 163 151 153 155 160 160
311 316 315 308 308 314 314 316 319 323 321 317 316 317 318 318 321 321 315 307 300 294 291 290 289 291 295 296 303 303 303 302 285 288 250 173 161 153 149 147 145 147 146
317 318 315 310 311 316 317 320 322 321 317 315 316 317 317 316 318 320 322 321 310 315 308 299 296 298 293 305 312 314 314 315 296 288 178 177 166 158 156 150 145 146 149